Time,TemperatureF,DewpointF,PressureIn,WindDirection,WindDirectionDegrees,WindSpeedMPH,WindSpeedGustMPH,Humidity,HourlyPrecipIn,Conditions,Clouds,dailyrainin,SoftwareType,DateUTC
2013-01-19 00:03:00,29.7,23.9,29.99,East,90,3.0,3.0,79,0.00,,,0.00,meteohub,2013-01-19 06:03:00,
2013-01-19 00:08:00,29.8,24.1,29.99,SE,135,3.0,3.0,79,0.00,,,0.00,meteohub,2013-01-19 06:08:00,
2013-01-19 00:13:00,29.8,24.1,30.00,SE,135,3.0,3.0,79,0.00,,,0.00,meteohub,2013-01-19 06:13:00,
2013-01-19 00:18:00,30.0,24.3,30.00,East,90,2.0,3.0,79,0.00,,,0.00,meteohub,2013-01-19 06:18:00,
2013-01-19 00:23:00,30.0,24.6,30.00,East,90,2.0,3.0,80,0.00,,,0.00,meteohub,2013-01-19 06:23:00,
2013-01-19 00:28:00,30.0,24.6,29.99,SE,135,2.0,3.0,80,0.00,,,0.00,meteohub,2013-01-19 06:28:00,
2013-01-19 00:33:00,30.2,24.4,29.99,SE,135,1.0,3.0,79,0.00,,,0.00,meteohub,2013-01-19 06:33:00,
2013-01-19 00:38:00,30.2,24.4,29.99,East,90,2.0,3.0,79,0.00,,,0.00,meteohub,2013-01-19 06:38:00,
2013-01-19 00:43:00,30.0,24.6,29.99,NE,45,0.0,3.0,80,0.00,,,0.00,meteohub,2013-01-19 06:43:00,
2013-01-19 00:49:00,30.0,24.3,29.99,East,90,1.0,2.0,79,0.00,,,0.00,meteohub,2013-01-19 06:49:00,
2013-01-19 00:54:00,30.0,24.3,29.99,NE,45,0.0,2.0,79,0.00,,,0.00,meteohub,2013-01-19 06:54:00,
2013-01-19 00:59:00,30.0,24.3,29.98,NW,315,1.0,2.0,79,0.00,,,0.00,meteohub,2013-01-19 06:59:00,
2013-01-19 01:04:00,30.0,24.3,29.99,NW,315,0.0,2.0,79,0.00,,,0.00,meteohub,2013-01-19 07:04:00,
2013-01-19 01:09:00,29.8,24.1,29.98,NE,45,1.0,2.0,79,0.00,,,0.00,meteohub,2013-01-19 07:09:00,
2013-01-19 01:14:00,29.8,24.1,29.98,East,90,1.0,1.0,79,0.00,,,0.00,meteohub,2013-01-19 07:14:00,
2013-01-19 01:19:00,29.8,24.1,29.98,East,90,3.0,3.0,79,0.00,,,0.00,meteohub,2013-01-19 07:19:00,
2013-01-19 01:24:00,29.8,24.1,29.97,NE,45,0.0,2.0,79,0.00,,,0.00,meteohub,2013-01-19 07:24:00,
2013-01-19 01:29:00,29.8,24.1,29.97,NE,45,0.0,3.0,79,0.00,,,0.00,meteohub,2013-01-19 07:29:00,
2013-01-19 01:34:00,29.8,24.1,29.97,NE,45,0.0,3.0,79,0.00,,,0.00,meteohub,2013-01-19 07:34:00,
2013-01-19 01:39:00,29.8,24.1,29.97,NE,45,0.0,2.0,79,0.00,,,0.00,meteohub,2013-01-19 07:39:00,
2013-01-19 01:45:00,29.8,24.1,29.97,NE,45,0.0,1.0,79,0.00,,,0.00,meteohub,2013-01-19 07:45:00,
2013-01-19 01:50:00,29.8,24.1,29.97,West,270,0.0,1.0,79,0.00,,,0.00,meteohub,2013-01-19 07:50:00,
2013-01-19 01:55:00,29.8,24.4,29.97,West,270,0.0,1.0,80,0.00,,,0.00,meteohub,2013-01-19 07:55:00,
2013-01-19 02:00:00,29.7,24.3,29.97,West,270,1.0,1.0,80,0.00,,,0.00,meteohub,2013-01-19 08:00:00,
2013-01-19 02:05:00,29.7,24.3,29.97,West,270,1.0,1.0,80,0.00,,,0.00,meteohub,2013-01-19 08:05:00,
2013-01-19 02:10:00,29.3,23.9,29.97,West,270,0.0,1.0,80,0.00,,,0.00,meteohub,2013-01-19 08:10:00,
2013-01-19 02:15:00,28.9,23.2,29.96,NE,45,1.0,1.0,79,0.00,,,0.00,meteohub,2013-01-19 08:15:00,
2013-01-19 02:20:00,28.6,22.8,29.96,NE,45,0.0,2.0,79,0.00,,,0.00,meteohub,2013-01-19 08:20:00,
2013-01-19 02:25:00,28.6,22.8,29.96,NE,45,0.0,2.0,79,0.00,,,0.00,meteohub,2013-01-19 08:25:00,
2013-01-19 02:30:00,28.6,23.2,29.96,East,90,2.0,2.0,80,0.00,,,0.00,meteohub,2013-01-19 08:30:00,
2013-01-19 02:36:00,28.6,23.2,29.96,East,90,2.0,3.0,80,0.00,,,0.00,meteohub,2013-01-19 08:36:00,
2013-01-19 02:41:00,28.6,23.2,29.96,East,90,2.0,3.0,80,0.00,,,0.00,meteohub,2013-01-19 08:41:00,
2013-01-19 02:46:00,28.9,23.5,29.96,NE,45,2.0,3.0,80,0.00,,,0.00,meteohub,2013-01-19 08:46:00,
2013-01-19 02:51:00,29.1,24.1,29.96,NE,45,4.0,4.0,81,0.00,,,0.00,meteohub,2013-01-19 08:51:00,
2013-01-19 02:56:00,29.3,24.3,29.96,ENE,68,2.0,4.0,81,0.00,,,0.00,meteohub,2013-01-19 08:56:00,
2013-01-19 03:01:00,29.5,24.4,29.95,NE,45,3.0,4.0,81,0.00,,,0.00,meteohub,2013-01-19 09:01:00,
2013-01-19 03:06:00,29.5,24.6,29.95,NE,45,4.0,4.0,82,0.00,,,0.00,meteohub,2013-01-19 09:06:00,
2013-01-19 03:11:00,29.5,24.6,29.95,East,90,4.0,4.0,82,0.00,,,0.00,meteohub,2013-01-19 09:11:00,
2013-01-19 03:16:00,29.5,24.6,29.95,North,0,1.0,4.0,82,0.00,,,0.00,meteohub,2013-01-19 09:16:00,
2013-01-19 03:21:00,29.3,24.4,29.95,SE,135,1.0,4.0,82,0.00,,,0.00,meteohub,2013-01-19 09:21:00,
2013-01-19 03:26:00,29.3,24.4,29.95,North,0,1.0,4.0,82,0.00,,,0.00,meteohub,2013-01-19 09:26:00,
2013-01-19 03:31:00,29.3,24.4,29.95,North,0,2.0,2.0,82,0.00,,,0.00,meteohub,2013-01-19 09:31:00,
2013-01-19 03:36:00,29.3,24.4,29.94,North,0,2.0,2.0,82,0.00,,,0.00,meteohub,2013-01-19 09:36:00,
2013-01-19 03:41:00,29.3,24.4,29.93,North,0,2.0,2.0,82,0.00,,,0.00,meteohub,2013-01-19 09:41:00,
2013-01-19 03:46:00,29.3,24.4,29.93,North,0,4.0,4.0,82,0.00,,,0.00,meteohub,2013-01-19 09:46:00,
2013-01-19 03:51:00,29.1,24.3,29.93,NE,45,4.0,4.0,82,0.00,,,0.00,meteohub,2013-01-19 09:51:00,
2013-01-19 03:57:00,28.9,24.1,29.92,NE,45,1.0,4.0,82,0.00,,,0.00,meteohub,2013-01-19 09:57:00,
2013-01-19 04:02:00,28.9,24.1,29.93,NE,45,1.0,4.0,82,0.00,,,0.00,meteohub,2013-01-19 10:02:00,
2013-01-19 04:07:00,28.9,24.1,29.93,NE,45,1.0,4.0,82,0.00,,,0.00,meteohub,2013-01-19 10:07:00,
2013-01-19 04:12:00,28.8,23.9,29.93,South,180,0.0,2.0,82,0.00,,,0.00,meteohub,2013-01-19 10:12:00,
2013-01-19 04:17:00,28.8,23.9,29.93,East,90,1.0,2.0,82,0.00,,,0.00,meteohub,2013-01-19 10:17:00,
2013-01-19 04:22:00,28.6,23.7,29.93,East,90,2.0,2.0,82,0.00,,,0.00,meteohub,2013-01-19 10:22:00,
2013-01-19 04:28:00,28.6,23.7,29.92,NE,45,2.0,2.0,82,0.00,,,0.00,meteohub,2013-01-19 10:28:00,
2013-01-19 04:33:00,28.6,23.7,29.92,East,90,5.0,5.0,82,0.00,,,0.00,meteohub,2013-01-19 10:33:00,
2013-01-19 04:38:00,28.9,24.1,29.91,ENE,68,5.0,7.0,82,0.00,,,0.00,meteohub,2013-01-19 10:38:00,
2013-01-19 04:43:00,29.1,24.6,29.91,NE,45,3.0,7.0,83,0.00,,,0.00,meteohub,2013-01-19 10:43:00,
2013-01-19 04:48:00,29.3,24.8,29.91,East,90,4.0,7.0,83,0.00,,,0.00,meteohub,2013-01-19 10:48:00,
2013-01-19 04:53:00,29.5,25.0,29.91,ENE,68,3.0,7.0,83,0.00,,,0.00,meteohub,2013-01-19 10:53:00,
2013-01-19 04:58:00,29.8,25.5,29.89,NE,45,4.0,6.0,84,0.00,,,0.00,meteohub,2013-01-19 10:58:00,
2013-01-19 05:03:00,29.8,25.5,29.90,NE,45,3.0,5.0,84,0.00,,,0.00,meteohub,2013-01-19 11:03:00,
2013-01-19 05:09:00,29.8,25.5,29.90,SE,135,1.0,6.0,84,0.00,,,0.00,meteohub,2013-01-19 11:09:00,
2013-01-19 05:14:00,30.0,25.7,29.92,SW,225,3.0,6.0,84,0.00,,,0.00,meteohub,2013-01-19 11:14:00,
2013-01-19 06:47:00,28.8,24.3,29.90,East,90,2.0,4.0,83,0.00,,,0.00,meteohub,2013-01-19 12:47:00,
2013-01-19 06:48:00,28.8,24.3,29.90,SE,135,2.0,4.0,83,0.00,,,0.00,meteohub,2013-01-19 12:48:00,
2013-01-19 06:49:00,28.8,24.3,29.89,East,90,2.0,4.0,83,0.00,,,0.00,meteohub,2013-01-19 12:49:00,
2013-01-19 06:52:00,28.8,24.3,29.90,SE,135,1.0,4.0,83,0.00,,,0.00,meteohub,2013-01-19 12:52:00,
2013-01-19 06:54:00,28.9,24.4,29.90,South,180,2.0,4.0,83,0.00,,,0.00,meteohub,2013-01-19 12:54:00,
2013-01-19 06:59:00,28.9,24.4,29.89,East,90,3.0,3.0,83,0.00,,,0.00,meteohub,2013-01-19 12:59:00,
2013-01-19 07:04:00,28.8,24.3,29.88,East,90,3.0,3.0,83,0.00,,,0.00,meteohub,2013-01-19 13:04:00,
2013-01-19 07:09:00,28.6,24.1,29.88,NE,45,2.0,3.0,83,0.00,,,0.00,meteohub,2013-01-19 13:09:00,
2013-01-19 07:14:00,28.6,24.1,29.88,East,90,3.0,4.0,83,0.00,,,0.00,meteohub,2013-01-19 13:14:00,
2013-01-19 07:19:00,28.8,24.3,29.89,South,180,2.0,4.0,83,0.00,,,0.00,meteohub,2013-01-19 13:19:00,
2013-01-19 07:24:00,28.8,24.3,29.89,SE,135,2.0,4.0,83,0.00,,,0.00,meteohub,2013-01-19 13:24:00,
2013-01-19 07:30:00,28.8,24.6,29.90,South,180,2.0,4.0,84,0.00,,,0.00,meteohub,2013-01-19 13:30:00,
2013-01-19 07:35:00,28.8,24.6,29.91,SW,225,2.0,3.0,84,0.00,,,0.00,meteohub,2013-01-19 13:35:00,
2013-01-19 07:40:00,28.9,24.8,29.91,SE,135,3.0,3.0,84,0.00,,,0.00,meteohub,2013-01-19 13:40:00,
2013-01-19 07:45:00,29.1,25.0,29.91,SE,135,3.0,3.0,84,0.00,,,0.00,meteohub,2013-01-19 13:45:00,
2013-01-19 07:50:00,29.1,25.0,29.91,South,180,2.0,3.0,84,0.00,,,0.00,meteohub,2013-01-19 13:50:00,
2013-01-19 07:55:00,29.5,25.2,29.90,SE,135,2.0,4.0,84,0.00,,,0.00,meteohub,2013-01-19 13:55:00,
2013-01-19 08:00:00,29.5,25.2,29.90,South,180,2.0,4.0,84,0.00,,,0.00,meteohub,2013-01-19 14:00:00,
2013-01-19 08:05:00,29.8,25.5,29.91,SSE,158,2.0,4.0,84,0.00,,,0.00,meteohub,2013-01-19 14:05:00,
2013-01-19 08:11:00,30.0,25.7,29.91,SE,135,4.0,4.0,84,0.00,,,0.00,meteohub,2013-01-19 14:11:00,
2013-01-19 08:16:00,30.4,25.9,29.91,SE,135,4.0,4.0,83,0.00,,,0.00,meteohub,2013-01-19 14:16:00,
2013-01-19 08:21:00,30.6,26.1,29.91,East,90,5.0,5.0,83,0.00,,,0.00,meteohub,2013-01-19 14:21:00,
2013-01-19 08:26:00,30.9,26.4,29.91,SE,135,2.0,7.0,83,0.00,,,0.00,meteohub,2013-01-19 14:26:00,
2013-01-19 08:31:00,31.1,26.6,29.91,SSE,158,4.0,7.0,83,0.00,,,0.00,meteohub,2013-01-19 14:31:00,
2013-01-19 08:36:00,31.3,26.8,29.91,SE,135,4.0,5.0,83,0.00,,,0.00,meteohub,2013-01-19 14:36:00,
2013-01-19 08:41:00,31.5,27.0,29.92,SE,135,2.0,5.0,83,0.00,,,0.00,meteohub,2013-01-19 14:41:00,
2013-01-19 08:46:00,31.6,27.1,29.92,South,180,4.0,5.0,83,0.00,,,0.00,meteohub,2013-01-19 14:46:00,
2013-01-19 08:52:00,31.8,27.3,29.91,SE,135,3.0,6.0,83,0.00,,,0.00,meteohub,2013-01-19 14:52:00,
2013-01-19 08:57:00,32.0,27.1,29.92,East,90,4.0,6.0,82,0.00,,,0.00,meteohub,2013-01-19 14:57:00,
2013-01-19 09:02:00,32.2,27.0,29.93,South,180,5.0,7.0,81,0.00,,,0.00,meteohub,2013-01-19 15:02:00,
2013-01-19 09:07:00,32.5,27.3,29.92,South,180,7.0,8.0,81,0.00,,,0.00,meteohub,2013-01-19 15:07:00,
2013-01-19 09:12:00,32.9,27.7,29.92,SE,135,6.0,8.0,81,0.00,,,0.00,meteohub,2013-01-19 15:12:00,
2013-01-19 09:17:00,33.1,27.5,29.92,South,180,5.0,8.0,80,0.00,,,0.00,meteohub,2013-01-19 15:17:00,
2013-01-19 09:22:00,33.3,27.7,29.92,South,180,9.0,9.0,80,0.00,,,0.00,meteohub,2013-01-19 15:22:00,
2013-01-19 09:28:00,33.4,27.7,29.93,SE,135,5.0,9.0,79,0.00,,,0.00,meteohub,2013-01-19 15:28:00,
2013-01-19 09:33:00,33.6,27.1,29.93,South,180,7.0,9.0,77,0.00,,,0.00,meteohub,2013-01-19 15:33:00,
2013-01-19 09:38:00,34.0,27.0,29.93,East,90,6.0,10.0,75,0.00,,,0.00,meteohub,2013-01-19 15:38:00,
2013-01-19 09:43:00,34.3,27.0,29.94,South,180,7.0,10.0,74,0.00,,,0.00,meteohub,2013-01-19 15:43:00,
2013-01-19 09:48:00,34.7,27.0,29.94,SE,135,9.0,10.0,73,0.00,,,0.00,meteohub,2013-01-19 15:48:00,
2013-01-19 09:53:00,35.1,27.0,29.94,South,180,8.0,10.0,72,0.00,,,0.00,meteohub,2013-01-19 15:53:00,
2013-01-19 09:58:00,35.2,26.4,29.94,SW,225,5.0,10.0,70,0.00,,,0.00,meteohub,2013-01-19 15:58:00,
2013-01-19 10:03:00,35.4,26.6,29.95,NE,45,4.0,9.0,70,0.00,,,0.00,meteohub,2013-01-19 16:03:00,
2013-01-19 10:08:00,35.6,26.1,29.95,SE,135,5.0,10.0,68,0.00,,,0.00,meteohub,2013-01-19 16:08:00,
2013-01-19 10:14:00,35.6,26.1,29.95,SW,225,4.0,10.0,68,0.00,,,0.00,meteohub,2013-01-19 16:14:00,
2013-01-19 10:19:00,35.6,26.4,29.94,SE,135,10.0,10.0,69,0.00,,,0.00,meteohub,2013-01-19 16:19:00,
2013-01-19 10:24:00,35.8,26.2,29.94,South,180,4.0,10.0,68,0.00,,,0.00,meteohub,2013-01-19 16:24:00,
2013-01-19 10:29:00,35.8,26.2,29.94,South,180,7.0,10.0,68,0.00,,,0.00,meteohub,2013-01-19 16:29:00,
2013-01-19 10:34:00,35.8,26.2,29.94,SE,135,6.0,10.0,68,0.00,,,0.00,meteohub,2013-01-19 16:34:00,
2013-01-19 10:39:00,36.1,26.6,29.95,South,180,7.0,10.0,68,0.00,,,0.00,meteohub,2013-01-19 16:39:00,
2013-01-19 10:44:00,36.3,26.4,29.96,South,180,7.0,9.0,67,0.00,,,0.00,meteohub,2013-01-19 16:44:00,
2013-01-19 10:49:00,36.5,26.2,29.96,South,180,4.0,9.0,66,0.00,,,0.00,meteohub,2013-01-19 16:49:00,
2013-01-19 10:54:00,36.5,26.2,29.96,South,180,8.0,10.0,66,0.00,,,0.00,meteohub,2013-01-19 16:54:00,
2013-01-19 10:59:00,36.5,26.2,29.96,South,180,4.0,10.0,66,0.00,,,0.00,meteohub,2013-01-19 16:59:00,
2013-01-19 11:04:00,36.5,26.2,29.96,South,180,4.0,10.0,66,0.00,,,0.00,meteohub,2013-01-19 17:04:00,
2013-01-19 11:10:00,36.7,26.4,29.95,SE,135,5.0,10.0,66,0.00,,,0.00,meteohub,2013-01-19 17:10:00,
2013-01-19 11:15:00,37.0,26.4,29.95,South,180,6.0,10.0,65,0.00,,,0.00,meteohub,2013-01-19 17:15:00,
2013-01-19 11:21:00,37.8,28.2,29.94,SSE,158,5.0,11.0,68,0.00,,,0.00,meteohub,2013-01-19 17:21:00,
2013-01-19 11:27:00,37.6,27.7,29.94,South,180,3.0,11.0,67,0.00,,,0.00,meteohub,2013-01-19 17:27:00,
2013-01-19 11:32:00,37.4,27.9,29.94,South,180,3.0,10.0,68,0.00,,,0.00,meteohub,2013-01-19 17:32:00,
2013-01-19 11:38:00,37.4,27.9,29.94,SW,225,4.0,6.0,68,0.00,,,0.00,meteohub,2013-01-19 17:38:00,
2013-01-19 11:43:00,37.6,28.0,29.94,South,180,4.0,8.0,68,0.00,,,0.00,meteohub,2013-01-19 17:43:00,
2013-01-19 11:48:00,37.9,28.0,29.94,SE,135,5.0,14.0,67,0.00,,,0.00,meteohub,2013-01-19 17:48:00,
2013-01-19 11:55:00,38.3,28.2,29.94,SSW,203,5.0,14.0,67,0.00,,,0.00,meteohub,2013-01-19 17:55:00,
2013-01-19 12:00:00,38.7,28.2,29.94,SW,225,8.0,10.0,66,0.00,,,0.00,meteohub,2013-01-19 18:00:00,
2013-01-19 12:06:00,38.7,28.2,29.94,SW,225,8.0,10.0,66,0.00,,,0.00,meteohub,2013-01-19 18:06:00,
2013-01-19 12:12:00,39.0,28.6,29.94,South,180,5.0,11.0,66,0.00,,,0.00,meteohub,2013-01-19 18:12:00,
2013-01-19 12:17:00,38.8,28.0,29.94,South,180,7.0,11.0,65,0.00,,,0.00,meteohub,2013-01-19 18:17:00,
2013-01-19 12:22:00,38.8,28.4,29.94,SW,225,11.0,11.0,66,0.00,,,0.00,meteohub,2013-01-19 18:22:00,
2013-01-19 12:27:00,38.8,28.4,29.94,SW,225,11.0,20.0,66,0.00,,,0.00,meteohub,2013-01-19 18:27:00,
2013-01-19 12:32:00,38.7,28.2,29.94,South,180,7.0,20.0,66,0.00,,,0.00,meteohub,2013-01-19 18:32:00,
2013-01-19 12:37:00,38.7,28.2,29.94,West,270,12.0,20.0,66,0.00,,,0.00,meteohub,2013-01-19 18:37:00,
2013-01-19 12:43:00,38.7,28.2,29.94,South,180,9.0,15.0,66,0.00,,,0.00,meteohub,2013-01-19 18:43:00,
2013-01-19 12:48:00,38.8,28.8,29.94,SE,135,16.0,16.0,67,0.00,,,0.00,meteohub,2013-01-19 18:48:00,
2013-01-19 12:54:00,39.0,28.6,29.94,SSW,203,11.0,16.0,66,0.00,,,0.00,meteohub,2013-01-19 18:54:00,
2013-01-19 12:59:00,39.4,28.6,29.94,SW,225,11.0,16.0,65,0.00,,,0.00,meteohub,2013-01-19 18:59:00,
2013-01-19 13:04:00,39.2,28.4,29.94,South,180,8.0,16.0,65,0.00,,,0.00,meteohub,2013-01-19 19:04:00,
2013-01-19 13:10:00,39.6,28.4,29.94,South,180,9.0,16.0,64,0.00,,,0.00,meteohub,2013-01-19 19:10:00,
2013-01-19 13:16:00,39.6,28.0,29.94,SSW,203,15.0,17.0,63,0.00,,,0.00,meteohub,2013-01-19 19:16:00,
2013-01-19 13:22:00,39.4,27.5,29.94,SE,135,16.0,17.0,62,0.00,,,0.00,meteohub,2013-01-19 19:22:00,
2013-01-19 13:27:00,39.0,27.5,29.94,South,180,7.0,17.0,63,0.00,,,0.00,meteohub,2013-01-19 19:27:00,
2013-01-19 13:33:00,38.8,27.3,29.94,SE,135,10.0,21.0,63,0.00,,,0.00,meteohub,2013-01-19 19:33:00,
2013-01-19 13:38:00,38.8,27.3,29.94,South,180,17.0,21.0,63,0.00,,,0.00,meteohub,2013-01-19 19:38:00,
2013-01-19 13:44:00,38.8,27.3,29.93,SE,135,11.0,21.0,63,0.00,,,0.00,meteohub,2013-01-19 19:44:00,
2013-01-19 13:49:00,38.7,27.5,29.94,SE,135,6.0,24.0,64,0.00,,,0.00,meteohub,2013-01-19 19:49:00,
2013-01-19 13:55:00,38.7,27.5,29.94,East,90,6.0,24.0,64,0.00,,,0.00,meteohub,2013-01-19 19:55:00,
2013-01-19 14:00:00,38.7,27.9,29.93,SW,225,10.0,17.0,65,0.00,,,0.00,meteohub,2013-01-19 20:00:00,
2013-01-19 14:06:00,38.7,27.9,29.93,SW,225,10.0,10.0,65,0.00,,,0.00,meteohub,2013-01-19 20:06:00,
2013-01-19 14:11:00,38.5,27.7,29.94,South,180,11.0,11.0,65,0.00,,,0.00,meteohub,2013-01-19 20:11:00,
2013-01-19 14:16:00,38.5,27.7,29.94,South,180,19.0,19.0,65,0.00,,,0.00,meteohub,2013-01-19 20:16:00,
2013-01-19 14:21:00,38.5,27.7,29.94,South,180,23.0,23.0,65,0.00,,,0.00,meteohub,2013-01-19 20:21:00,
2013-01-19 14:27:00,37.8,27.5,29.96,WSW,248,14.0,23.0,66,0.00,,,0.00,meteohub,2013-01-19 20:27:00,
2013-01-19 14:32:00,36.5,24.8,29.97,SW,225,19.0,24.0,62,0.00,,,0.00,meteohub,2013-01-19 20:32:00,
2013-01-19 14:37:00,34.7,23.0,29.97,SW,225,15.0,24.0,62,0.00,,,0.00,meteohub,2013-01-19 20:37:00,
2013-01-19 14:42:00,34.2,22.1,29.97,SE,135,13.0,21.0,61,0.00,,,0.00,meteohub,2013-01-19 20:42:00,
2013-01-19 14:48:00,33.4,21.4,29.98,SW,225,9.0,21.0,61,0.00,,,0.00,meteohub,2013-01-19 20:48:00,
2013-01-19 14:53:00,33.1,19.9,29.99,ESE,113,17.0,21.0,58,0.00,,,0.00,meteohub,2013-01-19 20:53:00,
2013-01-19 14:58:00,30.9,15.4,29.99,SE,135,24.0,34.0,52,0.00,,,0.00,meteohub,2013-01-19 20:58:00,
2013-01-19 15:04:00,29.3,12.9,30.00,SW,225,15.0,35.0,50,0.00,,,0.00,meteohub,2013-01-19 21:04:00,
2013-01-19 15:10:00,28.9,11.7,30.01,SE,135,15.0,35.0,48,0.00,,,0.00,meteohub,2013-01-19 21:10:00,
2013-01-19 15:15:00,28.8,10.0,30.01,SW,225,8.0,35.0,45,0.00,,,0.00,meteohub,2013-01-19 21:15:00,
2013-01-19 15:21:00,27.7,6.4,30.02,SW,225,14.0,23.0,40,0.00,,,0.00,meteohub,2013-01-19 21:21:00,
2013-01-19 15:26:00,26.1,5.0,30.03,SSE,158,20.0,35.0,40,0.00,,,0.00,meteohub,2013-01-19 21:26:00,
2013-01-19 15:31:00,25.0,4.1,30.04,South,180,21.0,35.0,40,0.00,,,0.00,meteohub,2013-01-19 21:31:00,
2013-01-19 15:37:00,23.5,3.7,30.05,WNW,293,14.0,35.0,42,0.00,,,0.00,meteohub,2013-01-19 21:37:00,
2013-01-19 15:43:00,22.5,3.4,30.06,SW,225,20.0,23.0,43,0.00,,,0.00,meteohub,2013-01-19 21:43:00,
2013-01-19 15:48:00,21.6,3.0,30.07,SE,135,18.0,23.0,44,0.00,,,0.00,meteohub,2013-01-19 21:48:00,
2013-01-19 15:53:00,20.7,2.7,30.08,South,180,18.0,23.0,45,0.00,,,0.00,meteohub,2013-01-19 21:53:00,
2013-01-19 15:59:00,19.9,2.5,30.08,SE,135,18.0,27.0,46,0.00,,,0.00,meteohub,2013-01-19 21:59:00,
2013-01-19 16:05:00,19.9,2.5,30.09,SSW,203,22.0,27.0,46,0.00,,,0.00,meteohub,2013-01-19 22:05:00,
2013-01-19 16:10:00,18.9,-0.4,30.09,SSW,203,19.0,22.0,42,0.00,,,0.00,meteohub,2013-01-19 22:10:00,
2013-01-19 16:16:00,18.5,-0.2,30.10,SW,225,13.0,22.0,43,0.00,,,0.00,meteohub,2013-01-19 22:16:00,
2013-01-19 16:22:00,18.1,-0.6,30.10,South,180,15.0,22.0,43,0.00,,,0.00,meteohub,2013-01-19 22:22:00,
2013-01-19 16:27:00,17.6,-1.7,30.11,SW,225,21.0,21.0,42,0.00,,,0.00,meteohub,2013-01-19 22:27:00,
2013-01-19 16:32:00,17.4,-1.3,30.11,South,180,18.0,21.0,43,0.00,,,0.00,meteohub,2013-01-19 22:32:00,
2013-01-19 16:37:00,17.2,-1.5,30.12,South,180,11.0,21.0,43,0.00,,,0.00,meteohub,2013-01-19 22:37:00,
2013-01-19 16:43:00,16.9,-1.8,30.12,South,180,24.0,24.0,43,0.00,,,0.00,meteohub,2013-01-19 22:43:00,
2013-01-19 16:48:00,16.5,-2.0,30.13,SW,225,17.0,24.0,43,0.00,,,0.00,meteohub,2013-01-19 22:48:00,
2013-01-19 16:54:00,16.3,-2.2,30.14,South,180,12.0,24.0,43,0.00,,,0.00,meteohub,2013-01-19 22:54:00,
2013-01-19 16:59:00,16.0,-2.6,30.14,South,180,16.0,24.0,43,0.00,,,0.00,meteohub,2013-01-19 22:59:00,
2013-01-19 17:07:00,15.4,-2.6,30.15,East,90,11.0,23.0,44,0.00,,,0.00,meteohub,2013-01-19 23:07:00,
2013-01-19 17:12:00,15.1,-2.9,30.15,SE,135,21.0,21.0,44,0.00,,,0.00,meteohub,2013-01-19 23:12:00,
2013-01-19 17:18:00,14.9,-2.6,30.17,SW,225,13.0,21.0,45,0.00,,,0.00,meteohub,2013-01-19 23:18:00,
2013-01-19 17:23:00,14.4,-4.0,30.17,SW,225,26.0,26.0,43,0.00,,,0.00,meteohub,2013-01-19 23:23:00,
2013-01-19 17:28:00,14.2,-4.7,30.17,South,180,22.0,29.0,42,0.00,,,0.00,meteohub,2013-01-19 23:28:00,
2013-01-19 17:33:00,14.0,-4.9,30.18,SW,225,13.0,29.0,42,0.00,,,0.00,meteohub,2013-01-19 23:33:00,
2013-01-19 17:39:00,13.6,-5.3,30.18,South,180,17.0,29.0,42,0.00,,,0.00,meteohub,2013-01-19 23:39:00,
2013-01-19 17:44:00,13.1,-5.6,30.19,SE,135,19.0,22.0,42,0.00,,,0.00,meteohub,2013-01-19 23:44:00,
2013-01-19 17:50:00,12.9,-5.8,30.20,SW,225,17.0,24.0,42,0.00,,,0.00,meteohub,2013-01-19 23:50:00,
2013-01-19 17:55:00,12.6,-6.2,30.20,SE,135,16.0,26.0,42,0.00,,,0.00,meteohub,2013-01-19 23:55:00,
2013-01-19 18:01:00,12.4,-5.8,30.21,SE,135,11.0,26.0,43,0.00,,,0.00,meteohub,2013-01-20 00:01:00,
2013-01-19 18:07:00,12.4,-5.8,30.21,SE,135,11.0,19.0,43,0.00,,,0.00,meteohub,2013-01-20 00:07:00,
2013-01-19 18:12:00,11.7,-5.6,30.22,South,180,7.0,19.0,45,0.00,,,0.00,meteohub,2013-01-20 00:12:00,
2013-01-19 18:17:00,10.9,-6.7,30.22,South,180,18.0,21.0,44,0.00,,,0.00,meteohub,2013-01-20 00:17:00,
2013-01-19 18:23:00,10.6,-7.1,30.23,South,180,11.0,21.0,44,0.00,,,0.00,meteohub,2013-01-20 00:23:00,
2013-01-19 18:29:00,10.2,-9.4,30.24,South,180,17.0,21.0,40,0.00,,,0.00,meteohub,2013-01-20 00:29:00,
2013-01-19 18:34:00,9.9,-9.6,30.24,SSW,203,17.0,19.0,40,0.00,,,0.00,meteohub,2013-01-20 00:34:00,
2013-01-19 18:39:00,9.7,-10.3,30.24,SW,225,19.0,19.0,39,0.00,,,0.00,meteohub,2013-01-20 00:39:00,
2013-01-19 18:45:00,9.7,-10.3,30.25,South,180,19.0,21.0,39,0.00,,,0.00,meteohub,2013-01-20 00:45:00,
2013-01-19 18:51:00,9.5,-10.5,30.25,SW,225,9.0,21.0,39,0.00,,,0.00,meteohub,2013-01-20 00:51:00,
2013-01-19 18:56:00,9.3,-10.1,30.26,South,180,10.0,21.0,40,0.00,,,0.00,meteohub,2013-01-20 00:56:00,
2013-01-19 19:01:00,9.1,-10.3,30.26,SE,135,14.0,19.0,40,0.00,,,0.00,meteohub,2013-01-20 01:01:00,
2013-01-19 19:06:00,9.0,-9.9,30.26,South,180,12.0,17.0,41,0.00,,,0.00,meteohub,2013-01-20 01:06:00,
2013-01-19 19:11:00,9.0,-9.4,30.27,South,180,14.0,15.0,42,0.00,,,0.00,meteohub,2013-01-20 01:11:00,
2013-01-19 19:17:00,8.8,-9.6,30.28,South,180,15.0,19.0,42,0.00,,,0.00,meteohub,2013-01-20 01:17:00,
2013-01-19 19:22:00,8.6,-10.3,30.28,SW,225,24.0,24.0,41,0.00,,,0.00,meteohub,2013-01-20 01:22:00,
2013-01-19 19:27:00,8.1,-10.8,30.29,South,180,12.0,24.0,41,0.00,,,0.00,meteohub,2013-01-20 01:27:00,
2013-01-19 19:32:00,7.9,-11.4,30.29,SW,225,15.0,24.0,40,0.00,,,0.00,meteohub,2013-01-20 01:32:00,
2013-01-19 19:38:00,7.5,-11.7,30.30,West,270,10.0,24.0,40,0.00,,,0.00,meteohub,2013-01-20 01:38:00,
2013-01-19 19:43:00,7.2,-12.1,30.30,SW,225,11.0,23.0,40,0.00,,,0.00,meteohub,2013-01-20 01:43:00,
2013-01-19 19:48:00,7.2,-11.6,30.30,South,180,16.0,23.0,41,0.00,,,0.00,meteohub,2013-01-20 01:48:00,
2013-01-19 19:53:00,7.0,-11.7,30.31,SE,135,10.0,22.0,41,0.00,,,0.00,meteohub,2013-01-20 01:53:00,
2013-01-19 20:00:00,6.4,-11.7,30.31,South,180,15.0,17.0,42,0.00,,,0.00,meteohub,2013-01-20 02:00:00,
2013-01-19 20:05:00,6.4,-11.7,30.33,South,180,15.0,20.0,42,0.00,,,0.00,meteohub,2013-01-20 02:05:00,
2013-01-19 20:10:00,5.7,-12.8,30.33,South,180,22.0,22.0,41,0.00,,,0.00,meteohub,2013-01-20 02:10:00,
2013-01-19 20:15:00,5.5,-13.0,30.33,NW,315,17.0,24.0,41,0.00,,,0.00,meteohub,2013-01-20 02:15:00,
2013-01-19 20:20:00,5.5,-12.6,30.34,South,180,9.0,24.0,42,0.00,,,0.00,meteohub,2013-01-20 02:20:00,
2013-01-19 20:25:00,5.5,-12.1,30.34,South,180,15.0,22.0,43,0.00,,,0.00,meteohub,2013-01-20 02:25:00,
2013-01-19 20:31:00,5.2,-11.9,30.35,SW,225,8.0,17.0,44,0.00,,,0.00,meteohub,2013-01-20 02:31:00,
2013-01-19 20:36:00,5.2,-11.9,30.35,SW,225,11.0,16.0,44,0.00,,,0.00,meteohub,2013-01-20 02:36:00,
2013-01-19 20:42:00,4.8,-11.9,30.35,South,180,8.0,17.0,45,0.00,,,0.00,meteohub,2013-01-20 02:42:00,
2013-01-19 20:47:00,4.8,-11.9,30.35,South,180,15.0,18.0,45,0.00,,,0.00,meteohub,2013-01-20 02:47:00,
2013-01-19 20:53:00,4.8,-11.9,30.36,SW,225,9.0,18.0,45,0.00,,,0.00,meteohub,2013-01-20 02:53:00,
2013-01-19 20:58:00,4.6,-12.1,30.37,South,180,11.0,17.0,45,0.00,,,0.00,meteohub,2013-01-20 02:58:00,
2013-01-19 21:03:00,4.5,-12.6,30.36,SSW,203,15.0,20.0,44,0.00,,,0.00,meteohub,2013-01-20 03:03:00,
2013-01-19 21:08:00,4.5,-12.6,30.37,South,180,11.0,20.0,44,0.00,,,0.00,meteohub,2013-01-20 03:08:00,
2013-01-19 21:14:00,4.3,-12.8,30.37,South,180,7.0,20.0,44,0.00,,,0.00,meteohub,2013-01-20 03:14:00,
2013-01-19 21:20:00,4.1,-13.0,30.37,SW,225,14.0,15.0,44,0.00,,,0.00,meteohub,2013-01-20 03:20:00,
2013-01-19 21:26:00,3.7,-13.4,30.38,South,180,11.0,17.0,44,0.00,,,0.00,meteohub,2013-01-20 03:26:00,
2013-01-19 21:31:00,3.7,-12.8,30.38,South,180,11.0,17.0,45,0.00,,,0.00,meteohub,2013-01-20 03:31:00,
2013-01-19 21:37:00,3.7,-12.8,30.38,West,270,4.0,21.0,45,0.00,,,0.00,meteohub,2013-01-20 03:37:00,
2013-01-19 21:42:00,3.6,-13.0,30.38,West,270,3.0,21.0,45,0.00,,,0.00,meteohub,2013-01-20 03:42:00,
2013-01-19 21:47:00,3.7,-12.8,30.39,SSW,203,8.0,21.0,45,0.00,,,0.00,meteohub,2013-01-20 03:47:00,
2013-01-19 21:52:00,3.6,-13.0,30.40,South,180,8.0,14.0,45,0.00,,,0.00,meteohub,2013-01-20 03:52:00,
2013-01-19 21:57:00,3.6,-13.0,30.40,South,180,13.0,14.0,45,0.00,,,0.00,meteohub,2013-01-20 03:57:00,
2013-01-19 22:03:00,3.4,-13.2,30.40,SSE,158,12.0,16.0,45,0.00,,,0.00,meteohub,2013-01-20 04:03:00,
2013-01-19 22:08:00,3.4,-13.2,30.41,South,180,9.0,16.0,45,0.00,,,0.00,meteohub,2013-01-20 04:08:00,
2013-01-19 22:14:00,3.4,-13.7,30.40,South,180,10.0,16.0,44,0.00,,,0.00,meteohub,2013-01-20 04:14:00,
2013-01-19 22:19:00,3.4,-13.7,30.41,South,180,10.0,13.0,44,0.00,,,0.00,meteohub,2013-01-20 04:19:00,
2013-01-19 22:25:00,3.2,-13.7,30.41,South,180,8.0,13.0,44,0.00,,,0.00,meteohub,2013-01-20 04:25:00,
2013-01-19 22:30:00,3.2,-13.7,30.41,SW,225,11.0,13.0,44,0.00,,,0.00,meteohub,2013-01-20 04:30:00,
2013-01-19 22:36:00,3.0,-13.5,30.41,SE,135,5.0,16.0,45,0.00,,,0.00,meteohub,2013-01-20 04:36:00,
2013-01-19 22:41:00,3.0,-13.5,30.41,South,180,5.0,16.0,45,0.00,,,0.00,meteohub,2013-01-20 04:41:00,
2013-01-19 22:46:00,3.0,-13.5,30.41,South,180,8.0,15.0,45,0.00,,,0.00,meteohub,2013-01-20 04:46:00,
2013-01-19 22:51:00,2.8,-13.7,30.41,South,180,9.0,15.0,45,0.00,,,0.00,meteohub,2013-01-20 04:51:00,
2013-01-19 22:57:00,2.7,-13.9,30.41,SW,225,8.0,15.0,45,0.00,,,0.00,meteohub,2013-01-20 04:57:00,
2013-01-19 23:01:00,2.7,-13.9,30.41,South,180,14.0,15.0,45,0.00,,,0.00,meteohub,2013-01-20 05:01:00,
2013-01-19 23:02:00,2.7,-13.9,30.41,South,180,7.0,15.0,45,0.00,,,0.00,meteohub,2013-01-20 05:02:00,
2013-01-19 23:03:00,2.7,-13.9,30.41,SW,225,8.0,15.0,45,0.00,,,0.00,meteohub,2013-01-20 05:03:00,
2013-01-19 23:08:00,2.5,-14.1,30.40,SSE,158,6.0,17.0,45,0.00,,,0.00,meteohub,2013-01-20 05:08:00,
2013-01-19 23:09:00,2.5,-14.1,30.40,SW,225,11.0,17.0,45,0.00,,,0.00,meteohub,2013-01-20 05:09:00,
2013-01-19 23:14:00,2.3,-14.3,30.40,SW,225,9.0,17.0,45,0.00,,,0.00,meteohub,2013-01-20 05:14:00,
2013-01-19 23:19:00,2.1,-14.4,30.40,South,180,11.0,17.0,45,0.00,,,0.00,meteohub,2013-01-20 05:19:00,
2013-01-19 23:24:00,2.1,-14.4,30.40,South,180,11.0,15.0,45,0.00,,,0.00,meteohub,2013-01-20 05:24:00,
2013-01-19 23:30:00,2.1,-14.4,30.40,South,180,9.0,15.0,45,0.00,,,0.00,meteohub,2013-01-20 05:30:00,
2013-01-19 23:35:00,1.9,-14.4,30.40,South,180,8.0,15.0,45,0.00,,,0.00,meteohub,2013-01-20 05:35:00,
2013-01-19 23:40:00,1.9,-14.4,30.40,South,180,6.0,13.0,45,0.00,,,0.00,meteohub,2013-01-20 05:40:00,
2013-01-19 23:45:00,1.8,-14.6,30.41,South,180,9.0,13.0,45,0.00,,,0.00,meteohub,2013-01-20 05:45:00,
2013-01-19 23:50:00,1.8,-14.6,30.42,South,180,6.0,13.0,45,0.00,,,0.00,meteohub,2013-01-20 05:50:00,
2013-01-19 23:55:00,1.8,-14.6,30.43,SW,225,9.0,15.0,45,0.00,,,0.00,meteohub,2013-01-20 05:55:00,